This demonstration page uses our WeatherBlox Daily Observations layout. Learn more.

Left ArrowRight Arrow

Hourly Observations for March 15, 2015

Temp ( °F °C ) Dew Point ( °F °C ) Humidity (%) Winds ( mph kmh ) Pressure ( in mb ) Visibility ( mi km ) Precip ( " mm )
12:16 am 00:16 Clear 45 7 32 undefined 61 61 WNW 6 9 30.18 1022 10 16 N/A
12:36 am 00:36 Clear 43 6 32 undefined 66 66 WNW 6 9 30.18 1022 10 16 N/A
12:55 am 00:55 Clear 43 6 32 undefined 66 66 WNW 6 9 30.18 1022 10 16 N/A
1:16 am 01:16 Clear 41 5 32 undefined 70 70 W 5 7 30.18 1022 10 16 N/A
1:36 am 01:36 Clear 43 6 43 6 100 100 W 3 6 30.18 1022 10 16 N/A
1:55 am 01:55 Clear 39 4 39 4 100 100 W 5 7 30.21 1023 10 16 N/A
2:16 am 02:16 Clear 37 3 37 3 100 100 W 6 9 30.21 1023 10 16 N/A
2:36 am 02:36 Clear 37 3 N/A N/A WNW 6 9 30.21 1023 10 16 N/A
2:55 am 02:55 Clear 39 4 39 4 100 100 NW 7 11 30.24 1024 10 16 N/A
3:16 am 03:16 Clear 39 4 39 4 100 100 NW 6 9 30.24 1024 10 16 N/A
3:36 am 03:36 Clear 39 4 39 4 100 100 NW 6 9 30.24 1024 10 16 N/A
3:55 am 03:55 Clear 37 3 37 3 100 100 NNW 5 7 30.24 1024 10 16 N/A
4:16 am 04:16 Clear 37 3 37 3 100 100 NNW 6 9 30.24 1024 10 16 N/A
4:36 am 04:36 Clear 37 3 N/A N/A N 7 11 30.24 1024 10 16 N/A
4:55 am 04:55 Clear 36 2 N/A N/A N 6 9 30.24 1024 10 16 N/A
5:16 am 05:16 Clear 34 1 N/A N/A N 3 6 30.24 1024 10 16 N/A
5:36 am 05:36 Clear 32 undefined N/A N/A NNE 5 7 30.24 1024 10 16 N/A
5:55 am 05:55 Clear 34 1 N/A N/A N N/A 30.24 1024 10 16 N/A
6:16 am 06:16 Clear 34 1 N/A N/A N N/A 30.24 1024 10 16 N/A
6:35 am 06:35 Clear 32 undefined N/A N/A N N/A 30.24 1024 10 16 N/A
6:55 am 06:55 Clear 32 undefined N/A N/A N N/A 30.27 1025 10 16 N/A
7:16 am 07:16 Clear 32 undefined N/A N/A N N/A 30.27 1025 7 11 N/A
7:35 am 07:35 Clear 30 -1 N/A N/A W 6 9 30.27 1025 5 8 N/A
7:56 am 07:56 Sunny 32 undefined N/A N/A W 7 11 30.30 1026 7 11 N/A
8:16 am 08:16 Sunny 34 1 N/A N/A NW 3 6 30.30 1026 10 16 N/A
8:35 am 08:35 Sunny 32 undefined N/A N/A NNE 3 6 30.30 1026 7 11 N/A
8:56 am 08:56 Sunny 34 1 N/A N/A N N/A 30.30 1026 5 8 N/A
9:16 am 09:16 Sunny 36 2 N/A N/A N N/A 30.30 1026 7 11 N/A
9:35 am 09:35 Sunny 39 4 39 4 100 100 N N/A 30.33 1027 10 16 N/A
9:56 am 09:56 Sunny 41 5 30 -1 66 66 N N/A 30.33 1027 10 16 N/A
10:15 am 10:15 Sunny 43 6 30 -1 61 61 N N/A 30.30 1026 10 16 N/A
10:36 am 10:36 Sunny 45 7 28 -2 53 53 N N/A 30.30 1026 10 16 N/A
10:56 am 10:56 Sunny 48 9 28 -2 46 46 N N/A 30.30 1026 10 16 N/A
11:15 am 11:15 Sunny 50 10 28 -2 43 43 N N/A 30.30 1026 10 16 N/A
11:36 am 11:36 Sunny 50 10 28 -2 43 43 N N/A 30.30 1026 10 16 N/A
11:55 am 11:55 Sunny 52 11 28 -2 41 41 N N/A 30.30 1026 10 16 N/A
12:15 pm 12:15 Sunny 54 12 25 -4 33 33 N N/A 30.30 1026 10 16 N/A
12:36 pm 12:36 Sunny 54 12 25 -4 33 33 NNW 5 7 30.30 1026 10 16 N/A
12:55 pm 12:55 Sunny 55 13 27 -3 33 33 N N/A 30.30 1026 10 16 N/A
1:15 pm 13:15 Sunny 55 13 25 -4 31 31 N N/A 30.30 1026 10 16 N/A
1:36 pm 13:36 Sunny 57 14 27 -3 31 31 ESE 3 6 30.24 1024 10 16 N/A
1:55 pm 13:55 Sunny 57 14 23 -5 27 27 WSW 3 6 30.24 1024 10 16 N/A
2:16 pm 14:16 Sunny 59 15 21 -6 23 23 N N/A 30.24 1024 10 16 N/A
2:35 pm 14:35 Sunny 59 15 18 -8 20 20 SW 3 6 30.24 1024 10 16 N/A
2:56 pm 14:56 Sunny 61 16 21 -6 22 22 W 8 13 30.24 1024 10 16 N/A
3:15 pm 15:15 Sunny 61 16 19 -7 20 20 WSW 5 7 30.21 1023 10 16 N/A
3:36 pm 15:36 Sunny 61 16 16 -9 17 17 W 5 7 30.21 1023 10 16 N/A
3:56 pm 15:56 Sunny 63 17 19 -7 19 19 W 6 9 30.21 1023 10 16 N/A
4:15 pm 16:15 Sunny 63 17 18 -8 17 17 WNW 6 9 30.18 1022 10 16 N/A
4:36 pm 16:36 Sunny 63 17 18 -8 17 17 W 5 7 30.18 1022 10 16 N/A
4:55 pm 16:55 Sunny 61 16 18 -8 19 19 W 7 11 30.18 1022 10 16 N/A
5:15 pm 17:15 Sunny 61 16 25 -4 25 25 SW 8 13 30.18 1022 10 16 N/A
5:36 pm 17:36 Sunny 63 17 23 -5 22 22 WSW 6 9 30.18 1022 10 16 N/A
5:55 pm 17:55 Sunny 63 17 23 -5 22 22 SW 7 11 30.18 1022 10 16 N/A
6:16 pm 18:16 Sunny 61 16 25 -4 25 25 SW 8 13 30.18 1022 10 16 N/A
6:35 pm 18:35 Sunny 61 16 28 -2 29 29 WSW 7 11 30.18 1022 10 16 N/A
6:56 pm 18:56 Sunny 59 15 32 undefined 36 36 WSW 7 11 30.18 1022 10 16 N/A
7:16 pm 19:16 Sunny 59 15 27 -3 29 29 SW 10 17 30.18 1022 10 16 N/A
7:35 pm 19:35 Sunny 57 14 28 -2 33 33 SW 9 15 30.18 1022 10 16 N/A
7:56 pm 19:56 Clear 57 14 28 -2 33 33 SW 8 13 30.15 1021 10 16 N/A
8:16 pm 20:16 Clear 55 13 27 -3 33 33 SW 5 7 30.15 1021 10 16 N/A
8:35 pm 20:35 Clear 55 13 28 -2 36 36 SSW 7 11 30.15 1021 10 16 N/A
8:56 pm 20:56 Clear 54 12 30 -1 41 41 SSW 7 11 30.18 1022 10 16 N/A
9:15 pm 21:15 Clear 55 13 27 -3 33 33 SSW 3 6 30.15 1021 10 16 N/A
9:35 pm 21:35 Clear 54 12 28 -2 38 38 SSW 5 7 30.18 1022 10 16 N/A
9:56 pm 21:56 Clear 54 12 30 -1 41 41 SW 8 13 30.18 1022 10 16 N/A
10:15 pm 22:15 Clear 54 12 28 -2 38 38 SSW 8 13 30.18 1022 10 16 N/A
10:36 pm 22:36 Clear 54 12 30 -1 41 41 SSW 9 15 30.18 1022 10 16 N/A
10:55 pm 22:55 Clear 54 12 30 -1 41 41 SSW 9 15 30.15 1021 10 16 N/A
11:15 pm 23:15 Clear 54 12 30 -1 41 41 SW 8 13 30.15 1021 10 16 N/A
11:36 pm 23:36 Clear 54 12 32 undefined 44 44 SW 9 15 30.15 1021 10 16 N/A
11:55 pm 23:55 Clear 54 12 32 undefined 44 44 SW 12 19 30.15 1021 10 16 N/A

Powered by AerisWeather